When you browse on this site, cookies collect data to enhance your experience and personalize the content and advertising you see.
Visit our Privacy Policy to learn more. By continuing to use the site, you agree to this use of cookies and data.
EN

Hourly Weather La Ceiba

Today, 14 August, Friday

Time Temperature Precipitation Wind Pressure Humidity
00:00 +26°C° 0 mm 3 mps 759 mmHg 97%
01:00 +26°C° 0 mm 2 mps 758 mmHg 97%
02:00 +25°C° 0 mm 2 mps 758 mmHg 97%
03:00 +25°C° 0 mm 2 mps 757 mmHg 97%
04:00 +25°C° 0.2 mm 2 mps 758 mmHg 97%
05:00 +25°C° 0.2 mm 1 mps 758 mmHg 97%
06:00 +25°C° 0.2 mm 1 mps 758 mmHg 96%
07:00 +28°C° 0.3 mm 1 mps 758 mmHg 87%
08:00 +30°C° 0.3 mm 1 mps 758 mmHg 78%
09:00 +33°C° 0.3 mm 1 mps 759 mmHg 68%
10:00 +34°C° 0.7 mm 2 mps 759 mmHg 73%
11:00 +32°C° 0.7 mm 2 mps 759 mmHg 77%
12:00 +33°C° 0.7 mm 3 mps 759 mmHg 81%
13:00 +33°C° 1.3 mm 4 mps 758 mmHg 84%
14:00 +32°C° 1.3 mm 4 mps 757 mmHg 88%
15:00 +30°C° 1.3 mm 5 mps 757 mmHg 91%
16:00 +30°C° 0.8 mm 4 mps 757 mmHg 93%
17:00 +29°C° 0.8 mm 4 mps 757 mmHg 95%
18:00 +28°C° 0.8 mm 4 mps 758 mmHg 96%
19:00 +28°C° 0.1 mm 3 mps 758 mmHg 97%
20:00 +27°C° 0.1 mm 3 mps 758 mmHg 97%
21:00 +26°C° 0.1 mm 2 mps 758 mmHg 97%
22:00 +26°C° 0.1 mm 2 mps 758 mmHg 97%
23:00 +26°C° 0.1 mm 2 mps 758 mmHg 97%

Tomorrow, 15 August, Saturday

Time Temperature Precipitation Wind Pressure Humidity
00:00 +26°C° 0.1 mm 2 mps 758 mmHg 97%
01:00 +25°C° 0 mm 2 mps 758 mmHg 97%
02:00 +25°C° 0 mm 2 mps 757 mmHg 97%
03:00 +25°C° 0 mm 1 mps 757 mmHg 97%
04:00 +25°C° 0 mm 1 mps 757 mmHg 97%
05:00 +25°C° 0 mm 1 mps 757 mmHg 97%
06:00 +25°C° 0 mm 1 mps 757 mmHg 97%
07:00 +28°C° 0 mm 1 mps 758 mmHg 85%
08:00 +31°C° 0 mm 1 mps 758 mmHg 74%
09:00 +33°C° 0 mm 1 mps 758 mmHg 63%
10:00 +35°C° 0 mm 2 mps 758 mmHg 58%
11:00 +36°C° 0 mm 3 mps 758 mmHg 53%
12:00 +37°C° 0 mm 3 mps 758 mmHg 48%
13:00 +37°C° 0 mm 4 mps 757 mmHg 51%
14:00 +36°C° 0 mm 4 mps 756 mmHg 55%
15:00 +36°C° 0 mm 4 mps 756 mmHg 58%
16:00 +34°C° 0.3 mm 4 mps 756 mmHg 69%
17:00 +32°C° 0.3 mm 5 mps 756 mmHg 80%
18:00 +29°C° 0.3 mm 5 mps 757 mmHg 91%
19:00 +28°C° 0.4 mm 4 mps 758 mmHg 93%
20:00 +28°C° 0.4 mm 4 mps 758 mmHg 95%
21:00 +27°C° 0.4 mm 4 mps 759 mmHg 97%
22:00 +27°C° 0.1 mm 3 mps 759 mmHg 97%
23:00 +26°C° 0.1 mm 3 mps 759 mmHg 97%

Day after tomorrow, 16 August, Sunday

Time Temperature Precipitation Wind Pressure Humidity
00:00 +26°C° 0.1 mm 3 mps 759 mmHg 98%
01:00 +26°C° 0 mm 3 mps 758 mmHg 98%
02:00 +26°C° 0 mm 2 mps 758 mmHg 98%
03:00 +26°C° 0 mm 2 mps 758 mmHg 98%
04:00 +26°C° 0 mm 2 mps 758 mmHg 97%
05:00 +25°C° 0 mm 2 mps 758 mmHg 97%
06:00 +25°C° 0 mm 1 mps 758 mmHg 96%
07:00 +28°C° 0 mm 1 mps 759 mmHg 86%
08:00 +31°C° 0 mm 1 mps 759 mmHg 75%
09:00 +33°C° 0 mm 1 mps 760 mmHg 65%
10:00 +34°C° 0.1 mm 1 mps 759 mmHg 60%
11:00 +36°C° 0.1 mm 2 mps 759 mmHg 54%
12:00 +37°C° 0.1 mm 2 mps 758 mmHg 49%
13:00 +36°C° 0.3 mm 2 mps 758 mmHg 60%
14:00 +34°C° 0.3 mm 2 mps 757 mmHg 72%
15:00 +31°C° 0.3 mm 2 mps 757 mmHg 84%
16:00 +30°C° 1.8 mm 2 mps 757 mmHg 87%
17:00 +29°C° 1.8 mm 3 mps 758 mmHg 91%
18:00 +28°C° 1.8 mm 3 mps 758 mmHg 94%
19:00 +28°C° 0.9 mm 3 mps 758 mmHg 95%
20:00 +27°C° 0.9 mm 3 mps 759 mmHg 95%
21:00 +27°C° 0.9 mm 3 mps 759 mmHg 95%
22:00 +27°C° 0.2 mm 3 mps 759 mmHg 95%
23:00 +27°C° 0.2 mm 3 mps 759 mmHg 96%

17 August, Monday

Time Temperature Precipitation Wind Pressure Humidity
00:00 +26°C° 0.2 mm 2 mps 759 mmHg 96%
01:00 +26°C° 0.5 mm 2 mps 759 mmHg 96%
02:00 +26°C° 0.5 mm 2 mps 759 mmHg 95%
03:00 +26°C° 0.5 mm 2 mps 758 mmHg 95%
04:00 +26°C° 0.2 mm 1 mps 759 mmHg 95%
05:00 +26°C° 0.2 mm 1 mps 759 mmHg 95%
06:00 +26°C° 0.2 mm 1 mps 759 mmHg 94%
07:00 +29°C° 0 mm 1 mps 759 mmHg 83%
08:00 +32°C° 0 mm 1 mps 760 mmHg 71%
09:00 +34°C° 0 mm 1 mps 760 mmHg 59%
10:00 +35°C° 0 mm 1 mps 759 mmHg 56%
11:00 +36°C° 0 mm 2 mps 759 mmHg 54%
12:00 +37°C° 0 mm 2 mps 759 mmHg 52%
13:00 +36°C° 0.2 mm 2 mps 758 mmHg 57%
14:00 +35°C° 0.2 mm 2 mps 758 mmHg 63%
15:00 +34°C° 0.2 mm 2 mps 757 mmHg 68%
16:00 +32°C° 0.2 mm 2 mps 757 mmHg 75%
17:00 +30°C° 0.2 mm 2 mps 758 mmHg 82%
18:00 +29°C° 0.2 mm 1 mps 758 mmHg 90%
19:00 +28°C° 0 mm 1 mps 758 mmHg 92%
20:00 +27°C° 0 mm 1 mps 759 mmHg 94%
21:00 +27°C° 0 mm 1 mps 759 mmHg 97%
22:00 +26°C° 0 mm 1 mps 759 mmHg 97%
23:00 +26°C° 0 mm 1 mps 759 mmHg 97%

18 August, Tuesday

Time Temperature Precipitation Wind Pressure Humidity
00:00 +26°C° 0 mm 1 mps 758 mmHg 97%
01:00 +26°C° 0 mm 1 mps 758 mmHg 96%
02:00 +26°C° 0 mm 1 mps 758 mmHg 96%
03:00 +26°C° 0 mm 1 mps 758 mmHg 96%
04:00 +26°C° 0 mm 1 mps 758 mmHg 95%
05:00 +26°C° 0 mm 1 mps 758 mmHg 94%
06:00 +26°C° 0 mm 1 mps 758 mmHg 93%
07:00 +28°C° 0 mm 1 mps 759 mmHg 83%
08:00 +31°C° 0 mm 1 mps 759 mmHg 73%
09:00 +34°C° 0 mm 1 mps 759 mmHg 63%
10:00 +35°C° 0 mm 2 mps 759 mmHg 62%
11:00 +35°C° 0 mm 2 mps 759 mmHg 61%
12:00 +36°C° 0 mm 2 mps 758 mmHg 59%
13:00 +35°C° 0.1 mm 2 mps 758 mmHg 63%
14:00 +35°C° 0.1 mm 2 mps 757 mmHg 67%
15:00 +34°C° 0.1 mm 2 mps 757 mmHg 71%
16:00 +32°C° 0.3 mm 2 mps 757 mmHg 78%
17:00 +30°C° 0.3 mm 2 mps 757 mmHg 85%
18:00 +29°C° 0.3 mm 1 mps 757 mmHg 91%
19:00 +28°C° 0 mm 2 mps 758 mmHg 93%
20:00 +27°C° 0 mm 2 mps 758 mmHg 95%
21:00 +27°C° 0 mm 2 mps 758 mmHg 97%
22:00 +27°C° 0.1 mm 2 mps 758 mmHg 96%
23:00 +26°C° 0.1 mm 2 mps 758 mmHg 96%

19 August, Wednesday

Time Temperature Precipitation Wind Pressure Humidity
00:00 +26°C° 0.1 mm 1 mps 758 mmHg 96%
01:00 +26°C° 0 mm 1 mps 757 mmHg 96%
02:00 +26°C° 0 mm 1 mps 757 mmHg 96%
03:00 +26°C° 0 mm 1 mps 757 mmHg 95%
04:00 +26°C° 0 mm 1 mps 757 mmHg 95%
05:00 +26°C° 0 mm 1 mps 757 mmHg 95%
06:00 +26°C° 0 mm 1 mps 758 mmHg 95%
07:00 +29°C° 0 mm 1 mps 758 mmHg 85%
08:00 +31°C° 0 mm 1 mps 758 mmHg 76%
09:00 +34°C° 0 mm 1 mps 758 mmHg 66%
10:00 +34°C° 0.3 mm 1 mps 758 mmHg 65%
11:00 +35°C° 0.3 mm 1 mps 758 mmHg 64%
12:00 +36°C° 0.3 mm 2 mps 757 mmHg 63%
13:00 +36°C° 0.7 mm 2 mps 757 mmHg 66%
14:00 +35°C° 0.7 mm 2 mps 756 mmHg 68%
15:00 +35°C° 0.7 mm 2 mps 755 mmHg 71%
16:00 +32°C° 0.2 mm 2 mps 756 mmHg 78%
17:00 +31°C° 0.2 mm 2 mps 756 mmHg 84%
18:00 +29°C° 0.2 mm 3 mps 756 mmHg 91%
19:00 +29°C° 0.6 mm 3 mps 757 mmHg 93%
20:00 +28°C° 0.6 mm 3 mps 757 mmHg 94%
21:00 +28°C° 0.6 mm 3 mps 758 mmHg 96%
22:00 +27°C° 0.3 mm 3 mps 758 mmHg 96%
23:00 +27°C° 0.3 mm 3 mps 758 mmHg 96%
Show more